STARLINK-35640

Last updated on Fri Dec 19 2025 00:02:05 GMT+0000 (Coordinated Universal Time)

1 66536U 25265W 25352.66667824 -.01956208 00000+0 -49914-1 0 9998 2 66536 43.0003 19.3364 0001644 278.1393 232.9951 15.42167327 5927

Satellite not in orbit